Location: Le Gr�zie
(43.6000°N, 13.5000°E)
Time: 04:06:03
(UTC+00:00)

STARLINK-1200 - Pass Details

Date: 09 April 2020
Orbit: 549 x 550 km, 53.0° (Epoch: 02 June)

Event Time Altitude Azimuth Distance (km) Brightness Sun altitude
Rises 19:51:00 0° 305° (NW) 2,779 8.7 -22.0°
Reaches altitude 10° 19:53:17 10° 308° (NW) 1,879 7.5 -22.3°
Maximum altitude 19:57:33 67° 32° (NNE) 620 3.8 -22.9°
Enters shadow 19:57:41 67° 45° (NE) 622 3.7 -22.9°
